Regional Weather Roundup
Issued by NWS

Home | Current Version | Previous Version | Graphics & Text | Print | Product List | Glossary On
Versions: 1 2 3 4 5 6 7 8 9 10 11 12 13 14 15 16 17 18 19 20 21 22 23 24 25 26 27 28 29 30 31 32 33 34 35 36 37 38 39 40 41 42 43 44 45 46
000
ASUS45 KBOU 192010
RWRCO

WEATHER ROUNDUP FOR COLORADO
NATIONAL WEATHER SERVICE PUEBLO CO
200 PM MDT THU APR 19 2018

NOTE: "FAIR" INDICATES FEW OR NO CLOUDS BELOW 12000 FEET WITH NO
SIGNIFICANT WEATHER AND/OR OBSTRUCTIONS TO VISIBILITY.

COZ001>005-013-030-031-192100-
...NORTHWEST COLORADO...

CITY           SKY/WX    TMP DP  RH WIND       PRES   REMARKS
CRAIG          PTSUNNY   67  17  14 NE8       29.92F
HAYDEN         PTSUNNY   66   9  10 S12G18    29.94F
MEEKER         PTSUNNY   67   6   9 S13G22    29.90F
RABBIT EARS PA NOT AVBL
STEAMBOAT SPGS FAIR      63   7  11 S15G28    29.96F
WALDEN         FAIR      57  -2   9 SW8       30.06F
$$

COZ006>008-011-192100-
...WEST CENTRAL VALLEYS...

CITY           SKY/WX    TMP DP  RH WIND       PRES   REMARKS
GRAND JUNCTION CLOUDY    66  21  18 NW3       29.82F
MONTROSE       CLOUDY    69  -7   4 SW15      29.88F HAZE
EAGLE          PTSUNNY   64   5   9 CALM      29.96F
RIFLE          PTSUNNY   73   4   7 S18G29    29.85F
DELTA          NOT AVBL
NUCLA          FAIR      68   3   8 S23G35    29.91F HAZE
$$

COZ017>023-064>068-192100-
...SOUTHWEST COLORADO...

CITY           SKY/WX    TMP DP  RH WIND       PRES   REMARKS
DURANGO        PTSUNNY   67   7   9 S14G21    30.00F
CORTEZ         CLOUDY    69   4   7 SE23G31   29.90F
PAGOSA SPRINGS FAIR      63   0   8 S14G20    30.09F
TELLURIDE      CLOUDY    54   4  13 SE20G36   30.07F
WOLF CREEK PAS SUNNY     41  12  30 S28G37    30.26F
$$

COZ009-010-012-014-032>034-037-058>063-192100-
...CENTRAL COLORADO...

CITY           SKY/WX    TMP DP  RH WIND       PRES   REMARKS
ASPEN          CLOUDY    63   4   9 S15G23    29.98F
BUENA VISTA    FAIR      60   6  11 SE17G28   30.10F
COPPER MTN     NOT AVBL
BERTHOUD PASS  FAIR      30  21  69 S28G39    30.27S WCI  16
COTTONWOOD PAS MOSUNNY   54   5  14 SE23G31   30.15F
GUNNISON       CLOUDY    61   5  10 S20G31    30.01F
KREMMLING      PTSUNNY   64  -6   6 W5        30.01F
LEADVILLE      PTSUNNY   48   9  20 S17G26    30.13F
MONARCH PASS   MOSUNNY   39   9  28 S20G31    30.36F
SALIDA         FAIR      61   7  11 SE22G33   30.15F
SUNLIGHT       PTSUNNY   45   7  21 S6        30.16F
WILKERSON PASS SUNNY     45   1  16 S9G17     30.28S
$$

COZ069>075-192100-
...SAN LUIS VALLEY/SANGRE DE CRISTO MOUNTAINS...

CITY           SKY/WX    TMP DP  RH WIND       PRES   REMARKS
ALAMOSA        SUNNY     64   9  11 S26G40    30.08F
DEL NORTE      FAIR      61   9  12 NE5       30.09F
LA VETA PASS   MOSUNNY   59  12  15 S20G40    30.34F
SAGUACHE       NOT AVBL
$$

COZ035-036-038>040-192100-
...NORTHERN COLORADO FRONT RANGE...

CITY           SKY/WX    TMP DP  RH WIND       PRES   REMARKS
DENVER INTL AP MOSUNNY   66  18  15 S22G31    30.08F
DMNS CITY PARK NOT AVBL
AURORA         PTSUNNY   65  14  14 S12G23    30.09F
FRONT RANGE AP PTSUNNY   66  16  14 SE22G37   30.11F
ERIE MUNI ARPT FAIR      58  15  18 CALM      30.15F
BOULDER MUN AP FAIR      55  18  22 CALM      30.11F
CENTENNIAL     PTSUNNY   62  17  17 S20G30    30.09F
BROOMFIELD     PTSUNNY   57  18  21 N7        30.12F
LOVELAND       SUNNY     60  21  22 S9        30.11F
LONGMONT       FAIR      63  18  17 NW5       30.12F
$$

COZ041-046-047-076>085-087-088-192100-
...PIKES PEAK/PALMER DIVIDE AND SOUTHERN FOOTHILLS...

CITY           SKY/WX    TMP DP  RH WIND       PRES   REMARKS
COLO. SPRINGS  PTSUNNY   56  13  18 S15G26    30.17F
A. F. ACADEMY  MOSUNNY   56  12  17 SE16G25   30.16F
SCHRIEVER AFB  NOT AVBL
CHEYENNE MTN   NOT AVBL
ELLICOTT         N/A    N/A N/A N/A S21G31    30.15F
FALCON         FAIR      57   9  15 S22G28    30.20F
FORT CARSON    SUNNY     57  13  17 SE12      30.15F
LIMON          CLOUDY    61  15  16 SE31G46   30.16F
MONUMENT HILL  MOSUNNY   52  12  20 S31G37    30.17F
CANON CITY     FAIR      61  18  18 E9        30.12F
WALSENBURG     FAIR      70  18  13 S23       30.08F
TRINIDAD       SUNNY     64  12  13 S32G43    30.13F
$$

COZ042>045-048>051-090-091-192100-
...NORTHEAST COLORADO...

CITY           SKY/WX    TMP DP  RH WIND       PRES   REMARKS
GREELEY ARPT   MOSUNNY   65  18  16 SE22G29   30.11F
AKRON          CLOUDY    60  25  26 S29G41    30.19F
BURLINGTON     SUNNY     62  24  23 S31G43    30.25F
WRAY           FAIR      61  27  27 S20G41    30.25F
YUMA           NOT AVBL
STERLING       NOT AVBL
HOLYOKE        FAIR      63  28  27 S22G31    30.25F
FORT MORGAN    FAIR      62  15  16 S23G31    30.16F
$$

COZ086-089-092>099-192100-
...SOUTHEAST COLORADO...

CITY           SKY/WX    TMP DP  RH WIND       PRES   REMARKS
PUEBLO         SUNNY     65  16  15 VRB5      30.09F
LA JUNTA       MOSUNNY   71  12  10 S23G33    30.12F
LAMAR          SUNNY     68  19  15 S24G38    30.19F
SPRINGFIELD      N/A     63  19  18 S31G46    30.23F
$$





USA.gov is the U.S. government's official web portal to all federal, state and local government web resources and services.